Погода в Теофилу-Отони

Бразилия     17°51′58″S   41°30′22″W
темп.,
°C
ветер,
м/с
пор.,
м/с
влажн.,
%
обл.,
%
осадки,
мм/ч
давл.,
гПа
погр.,
м
27 февраля, сб
сб2700:00+19в1298100 0.0 101582
03:00+18в119995 0.0 101423
06:00+19юз0095100 0.0 101572
09:00+22в128499 0.0 1016460
12:00+26всв246473 0.0 10151170
15:00+26св236787 0.2 10121037
18:00+21вюв2693100 2.5 1013178
21:00+20в2996100 3.5 1015305
28 февраля, вс
вс2800:00+20в1799100 0.3 1015426
03:00+18в1299100 0.5 101445
06:00+17ю119999 0.0 101523
09:00+23в138793 0.1 1016499
12:00+26в2367100 0.2 10141082
15:00+24вюв3485100 1.6 1012642
18:00+21в2595100 1.9 1012219
21:00+20в1497100 2.1 1014151
1 марта, пн
пн100:00+19всв129997 0.1 101490
03:00+19вюв129997 0.3 101347
06:00+19вюв1610086 0.2 1014245
09:00+22в248463 0.3 1015822
12:00+26в346568 0.0 10141288
15:00+26в356270 0.1 10121568
18:00+22вюв258459 0.1 1012125
21:00+19в3119633 0.4 1014462
2 марта, вт
вт200:00+18в169940 0.1 1015278
03:00+19ссв009956 0.4 101434
06:00+18в0098100 0.1 101623
09:00+23в138092 0.2 1017757
12:00+26всв336971 0.3 10161029
15:00+26в346970 0.4 1013926
18:00+22вюв23872 0.0 101362
21:00+20юв12967 0.2 101623
3 марта, ср
ср300:00+19в149946 0.3 1017169
03:00+17в119942 0.3 101623
06:00+18с009976 0.0 101824
09:00+24ссв128169 0.1 1019577
12:00+28всв235631 0.0 10171448
15:00+27в235715 0.0 10141367
18:00+22в27840 0.0 1014219
21:00+19в12900 0.0 101723